Flag for Sweden Weather past 2 weeks in Halmstad, Sweden

Now
46 °F

Passing clouds.


Feels Like: 39 °F
Forecast: 41 / 45 °F
Wind: 17 mph from West

Location: Halmstad Swedish Air Force Base

Current Time: Dec 22, 2014 at 8:29:00 AM

Latest Report: Dec 22, 2014 at 7:50 AM


Visibility: N/A

Pressure: 29.42 "Hg

Humidity: 87%

Dew point: 43 °F

Location of HalmstadLocation

Historic Weather in Halmstad — Graph

°F

Halmstad temperature yesterday

Maximum temperature yesterday: 45 °F (at 11:20 PM)
Minimum temperature yesterday: 34 °F (at 12:20 AM)
Average temperature yesterday: 40 °F

Past Weeks' High & Low Weather Summary

 TemperatureHumidityPressure
High48 °F (Dec 19, 1:20 AM)93% (Dec 7, 12:20 PM)30.15 "Hg (Dec 7, 12:20 PM)
Low34 °F (Dec 12, 4:20 PM)70% (Dec 13, 3:50 PM)28.82 "Hg (Dec 12, 6:20 PM)
Average40 °F85%29.56 "Hg
* Reported Dec 7 7:20 AM — Dec 22 7:20 AM, Halmstad, Weather by CustomWeather, © 2014

Note: Actual official high and low records may vary slightly from our data, if they occured in-between our weather recording intervals... More about our weather records

Advertising

Halmstad weather history for previous 24 hours

 ConditionsComfort  
Time TempWeatherWind HumidityBarometerVisibility
7:20 AM
Dec 22
46 °FPassing clouds.17 mph87%29.42 "HgN/A
6:50 AM46 °FLow clouds.17 mph93%29.39 "HgN/A
6:20 AM46 °FDrizzle. Low clouds.17 mph93%29.39 "Hg1 mi
5:50 AM45 °FLight rain. Mostly cloudy.16 mph93%29.39 "Hg1 mi
5:20 AM45 °FFog.15 mph93%29.39 "Hg3 mi
4:50 AM45 °FLight rain. Mostly cloudy.15 mph93%29.42 "Hg5 mi
4:20 AM45 °FLight rain. Low clouds.17 mph93%29.42 "Hg5 mi
3:50 AM45 °FLight rain. Low clouds.20 mph93%29.42 "Hg4 mi
3:20 AM45 °FDrizzle. Low clouds.18 mph93%29.42 "Hg4 mi
2:50 AM45 °FDrizzle. Low clouds.18 mph93%29.45 "Hg4 mi
2:20 AM45 °FDrizzle. Low clouds.18 mph93%29.45 "Hg3 mi
1:20 AM45 °FDrizzle. Overcast.18 mph93%29.45 "Hg4 mi
12:50 AM45 °FDrizzle. Mostly cloudy.21 mph93%29.47 "Hg4 mi
12:20 AM45 °FLight rain. Low clouds.20 mph93%29.50 "Hg3 mi
11:50 PM
Dec 21
45 °FLow clouds.22 mph93%29.50 "HgN/A
11:20 PM45 °FDrizzle. Low clouds.22 mph87%29.53 "HgN/A
10:20 PM43 °FLight rain. Low clouds.23 mph93%29.56 "Hg4 mi
9:50 PM43 °FRain. Low clouds.22 mph93%29.56 "Hg3 mi
9:20 PM43 °FLight rain. Low clouds.23 mph93%29.59 "Hg3 mi
8:50 PM43 °FDrizzle. Low clouds.22 mph93%29.62 "Hg4 mi
8:20 PM43 °FDrizzle. Low clouds.21 mph93%29.62 "Hg3 mi
7:50 PM43 °FLight rain. Low clouds.22 mph93%29.65 "Hg3 mi
7:20 PM43 °FDrizzle. Low clouds.21 mph93%29.65 "Hg4 mi
5:20 PM43 °FLight rain. Partly cloudy.17 mph87%29.74 "Hg4 mi
4:50 PM43 °FPartly cloudy.17 mph87%29.77 "Hg3 mi
4:20 PM41 °FLight rain. Partly cloudy.17 mph93%29.77 "Hg4 mi
3:50 PM41 °FRain. Partly cloudy.10 mph87%29.80 "Hg4 mi
3:20 PM39 °FDrizzle. Broken clouds.5 mph93%29.80 "HgN/A
2:50 PM39 °FLight rain. Broken clouds.8 mph87%29.83 "Hg4 mi
2:20 PM41 °FDrizzle. Broken clouds.17 mph81%29.86 "HgN/A
1:50 PM41 °FScattered clouds.15 mph87%29.86 "HgN/A
1:20 PM41 °FScattered clouds.14 mph87%29.86 "HgN/A
12:50 PM41 °FPassing clouds.16 mph87%29.89 "HgN/A
12:20 PM41 °FPassing clouds.17 mph87%29.89 "HgN/A
11:50 AM41 °FScattered clouds.20 mph87%29.89 "HgN/A
11:20 AM41 °FScattered clouds.13 mph87%29.89 "HgN/A
10:50 AM41 °FPassing clouds.12 mph81%29.89 "HgN/A
10:20 AM41 °FQuite cool.14 mph76%29.89 "HgN/A
9:50 AM41 °FQuite cool.14 mph76%29.89 "HgN/A
9:20 AM41 °FQuite cool.14 mph76%29.89 "HgN/A
8:50 AM39 °FChilly.15 mph81%29.89 "HgN/A
8:20 AM39 °FChilly.9 mph81%29.89 "HgN/A
Weather by CustomWeather, © 2014

See weather overviewHow to use our weather pages